P/2015 C1 ( TOTAS-Gibbs )

Japanese version
Home page
Updated on March 25, 2017

---------------------------------------------------------------------

* Profile

Discovery Date February 11 and 13, 2015
Magnitude 18.9 mag, 18.7 mag
Discoverer Teide Observatory Tenerife Asteroid Survey (TOTAS), A. R. Gibbs (Mount Lemmon)

* Pictures

* Orbital Elements

Epoch 2015 May 18.0 TT = JDT 2457160.5
T 2015 May 1.24986 TT                                   MPCW
q   2.8926938            (2000.0)            P               Q
n   0.05804567     Peri.  178.40465     -0.97556148     -0.21478476
a   6.6062678      Node   348.86150     +0.19884568     -0.77326530
e   0.5621289      Incl.   13.87904     +0.09348899     -0.59659725
P  16.98
From 282 observations 2015 Jan. 23-2016 June 6, mean residual 0".4.

* Magnitudes Graph

        m1 = 9.8 + 5 log d + 15.0 log r

---------------------------------------------------------------------

The orbital elements are published on M.P.E.C. 2016-Q04.
The magnitudes graphs are made with Comet for Windows.

---------------------------------------------------------------------

Copyright(C) Seiichi Yoshida (comet@aerith.net). All rights reserved.